Tracking 17856 objects as of 28-September-2016
HD Live streaming from Space Station
objects crossing your sky now

EUTE 7A (EUTE W3A)

Track EUTE 7A (EUTE W3A) now!
EUTE 7A (EUTE W3A) is classified as:


NORAD ID: 28187
Int'l Code: 2004-008A
Perigee: 35,843.8 km
Apogee: 35,896.5 km
Inclination: 0.1 °
Period: 1,440.0 minutes
Semi major axis: 42241 km
RCS: 29.9526 m2 (large)
Launch date: March 15, 2004
Source: European Telecommunications Satellite Organization (EUTE)
Launch site: TYURATAM MISSILE AND SPACE COMPLEX (TTMTR)

58 Ku-band transponders; covers whole of sub-Saharan Africa and provides connectivity to Europe and Middle East.
Your satellite tracking list
Your tracking list is empty





NASA's NSSDC Master Catalog

Two Line Element Set (TLE):
1 28187U 04008A   16271.05906656  .00000016  00000-0  10000-3 0  9993
2 28187   0.0668  22.3658 0006238 193.3559 178.8585  1.00272126 45987
Source of the keplerian elements: AFSPC

N2YO: 488